Location: *
(46.4000°N, 12.6667°E)
Time: 03:51:41
(UTC+00:00)

Envisat - Pass Details

Date: 07 December 2021
Orbit: 764 x 766 km, 98.2° (Epoch: 16 January)

Event Time Altitude Azimuth Distance (km) Brightness Sun altitude
Rises 05:19:00 0° 4° (N) 3,244 6.1 -13.2°
Reaches altitude 10° 05:21:34 10° 353° (N) 2,313 5.2 -12.8°
Maximum altitude 05:25:51 28° 296° (WNW) 1,406 3.8 -12.1°
Drops below altitude 10° 05:30:08 10° 238° (WSW) 2,299 5.1 -11.4°
Sets 05:32:41 0° 227° (SW) 3,221 6.0 -11.0°
